sat.trackr.live / text

‹ back to catalog

STARLINK-3199

NORAD 49760 · 2021-115AN

PAYLOAD ACTIVE UNKNOWN

§ Identity

Operator
Country
US
Launch date
2021-12-02
Launch site
AFETR
Launch vehicle
Mass (kg)
RCS (m²)

Purposes: comms

External: N2YO · Heavens-Above · Gunter

§ Orbital elements

Epoch: 2026-09-20T04:55:47.193312Z

Period
93.85 min
Inclination
53.1604°
Eccentricity
0.0001086
Mean motion
15.34390083 rev/d
Perigee alt
462.0 km
Apogee alt
463.5 km
Semi-major
6,840.9 km
B*
3.3222e-5
RAAN
330.7585°
Arg perigee
80.8738°
Mean anomaly
279.2387°
Rev number
26,525

§ Raw data

STARLINK-31991 49760U 21115AN  26263.20540733  .00000746  00000+0  33222-4 0  99912 49760  53.1604 330.7585 0001086  80.8738 279.2387 15.34390083265251

JSON: /api/v1/satellites/49760 · /tle

For live sub-satellite position, see the globe view (requires WebGL).

§ Visibility from observer

Set your observer location to see the next 7 days of passes ≥ 10°. The values pass through the URL so the page stays shareable.

No JS? Fill the form by hand. The geolocation button needs JavaScript.